Wind_Speed
26 28 28 27 28 28 29 30 29 27 26 26 19 22 24 21 23 23 22 20 19 18 17 15 15 16 16 19 20 11 8 7 13 20 19 17 19 20 21 20 24 25 26 30 32 33 34
28 29 31 32 32 31 30 30 32 29 28 34 28 24 25 23 23 26 22 21 19 19 18 17 17 15 16 17 16 16 15 15 13 10 12 14 14 17 20 20 23 23 22 26 31 33 36
33 35 36 37 36 35 35 34 34 33 31 30 32 33 25 23 23 25 26 21 20 21 20 20 19 17 15 10 12 15 15 14 15 16 17 16 15 15 16 17 20 21 25 27 29 29 31
38 40 41 41 40 39 39 38 38 38 34 31 29 38 25 28 24 25 27 23 22 22 21 21 20 18 17 14 12 15 15 14 13 13 15 16 18 19 20 21 21 21 23 26 24 26 30
42 44 44 43 40 39 38 39 40 40 37 34 33 39 35 25 27 26 24 28 23 23 22 22 19 18 17 17 16 13 16 15 13 14 16 17 19 21 22 20 22 23 24 23 21 17 21
48 50 51 49 46 41 37 37 38 42 38 36 33 34 45 25 32 25 26 24 26 25 25 20 18 14 18 10 15 15 17 16 17 17 18 20 22 23 23 21 18 15 20 24 23 17 23
51 52 52 49 44 42 34 35 41 38 41 33 31 31 36 41 31 30 29 38 30 28 25 20 7 18 10 9 14 13 18 20 20 19 20 21 23 27 22 21 22 23 21 21 20 19 27
50 50 50 47 43 42 43 46 43 41 32 25 24 25 32 47 35 32 34 46 32 26 20 19 23 20 13 16 15 13 16 17 17 16 18 22 28 24 23 24 25 26 28 32 33 30 30
50 49 46 44 44 42 47 45 42 33 26 20 14 16 27 41 40 37 39 38 31 21 21 22 19 20 24 23 20 17 17 19 20 22 22 25 21 9 10 14 22 26 28 25 28 31 32
49 47 46 45 41 42 45 40 35 27 22 22 20 16 22 33 43 41 30 39 26 15 12 12 21 25 24 25 26 24 26 25 24 21 21 21 23 27 28 27 20 25 26 25 28 25 15
50 47 46 43 40 43 40 36 30 23 26 18 24 26 20 29 38 35 37 41 30 18 1 10 18 19 26 27 21 13 22 29 28 23 21 14 12 11 14 16 16 22 24 19 16 15 21
51 50 47 40 39 41 35 33 27 28 23 19 18 19 19 27 42 29 33 43 32 15 6 10 12 18 20 23 21 15 14 16 16 19 21 23 23 21 19 18 17 14 17 22 19 19 14
53 50 47 36 37 38 32 32 29 24 27 30 24 18 23 25 42 29 32 38 20 7 12 11 14 15 14 20 18 15 17 21 13 9 14 17 21 21 22 21 20 22 12 4 7 9 9
55 51 39 36 35 36 31 30 27 33 31 41 18 15 19 25 37 29 42 41 6 15 15 12 16 17 14 15 16 13 11 17 20 17 11 7 6 8 10 10 14 18 28 10 5 5 5
57 46 35 35 35 33 31 33 26 26 35 35 4 9 13 23 28 49 46 26 10 22 23 15 18 20 16 17 10 16 17 18 17 23 10 4 7 8 7 7 11 15 25 27 20 26 8
58 38 35 35 34 30 30 33 24 26 30 28 3 4 7 26 24 42 43 22 13 16 21 21 9 11 19 20 16 12 12 6 14 17 17 12 11 12 17 18 22 25 13 8 15 5 6
56 38 36 36 29 28 30 32 22 23 26 28 10 4 10 36 21 31 27 15 19 16 12 15 15 14 10 15 16 15 7 4 6 3 15 16 15 11 16 18 24 24 32 25 15 9 4
50 37 36 31 27 29 29 27 19 21 22 29 7 8 22 21 43 38 22 24 17 20 15 9 11 12 9 9 12 14 15 7 5 6 11 13 10 19 30 28 26 25 30 31 22 10 10
46 36 33 28 29 30 29 19 17 20 26 15 16 11 16 22 30 33 26 23 20 19 16 12 11 10 9 7 6 9 8 8 15 12 6 10 11 9 9 11 25 33 37 35 36 26 28
47 36 31 29 30 30 28 17 18 24 17 2 16 9 18 15 25 36 30 26 23 16 13 13 13 14 10 7 9 6 5 6 9 7 11 18 22 24 20 30 24 17 36 39 41 24 29
47 36 33 29 27 28 22 17 16 20 5 12 12 17 22 27 20 27 24 27 22 19 16 11 11 7 9 7 6 12 11 15 15 12 19 21 29 32 41 45 42 42 36 32 37 46 28
48 38 31 29 26 24 19 10 14 17 6 9 7 18 18 25 24 31 28 19 21 13 16 13 12 6 8 10 10 9 10 8 13 15 18 25 31 32 45 42 29 34 41 44 37 34 37
48 39 32 28 23 21 17 9 8 9 5 4 2 11 21 23 20 25 25 17 20 18 9 7 10 8 10 5 9 9 12 17 16 14 16 20 25 22 34 29 26 20 11 30 41 42 37
47 42 34 27 24 18 15 5 3 4 4 8 1 12 18 17 33 26 18 17 12 13 8 4 9 9 8 9 12 11 15 18 20 28 26 29 30 28 26 25 3 14 13 10 12 20 28
46 43 35 28 24 14 14 8 3 2 4 5 4 14 21 21 16 26 23 20 19 21 17 14 13 9 10 11 14 10 8 12 13 16 22 29 31 14 6 14 16 13 19 10 4 10 13
47 44 38 28 23 16 10 10 4 3 7 7 10 15 14 18 21 16 18 17 22 16 16 12 10 12 12 11 9 4 4 5 3 4 6 6 8 18 13 6 4 17 14 15 12 15 13
46 45 41 29 22 18 13 10 7 7 12 11 11 6 7 14 16 18 20 18 18 13 9 11 7 7 9 10 12 10 11 9 4 4 4 3 7 13 13 7 9 12 9 10 10 15 16
44 45 43 32 22 17 14 11 9 9 10 15 12 8 9 12 16 21 18 22 20 15 13 10 8 6 7 10 9 14 12 10 9 10 6 3 4 4 4 5 5 11 8 9 13 14 7
42 43 44 38 25 19 15 13 11 14 15 21 15 18 15 15 13 17 17 17 17 15 12 12 10 10 5 6 10 8 9 6 8 4 5 5 7 2 4 5 9 7 8 11 13 11 4
Wind_Direction
335 334 331 325 318 312 307 300 292 286 263 258 268 274 278 269 262 258 253 252 252 250 243 241 244 240 229 219 224 202 155 186 223 226 236 241 235 240 247 247 245 247 249 250 253 253 251
333 330 326 323 319 314 307 300 296 287 276 260 250 263 264 257 250 258 251 248 249 248 241 239 239 244 239 233 229 237 226 220 217 210 216 230 242 239 244 246 249 253 254 252 251 253 257
333 330 327 324 321 315 310 305 296 290 282 272 253 246 252 255 248 246 251 247 243 245 243 238 239 240 245 234 228 232 239 236 234 236 241 244 245 244 247 255 259 258 257 258 256 257 261
331 330 329 325 321 316 310 304 297 289 282 272 257 240 246 244 238 238 250 250 243 242 242 242 240 242 243 241 236 237 239 236 235 237 241 239 241 246 247 251 260 269 273 269 266 260 262
332 330 329 326 322 319 312 306 299 291 282 271 258 235 236 232 230 230 239 254 249 240 240 242 243 245 244 246 239 230 231 235 233 233 238 244 247 249 252 253 260 258 257 263 266 268 260
334 332 334 333 329 328 318 308 301 295 288 275 260 245 234 238 230 220 224 246 249 238 234 237 245 243 235 228 233 228 227 231 236 235 237 240 246 249 249 247 242 261 258 268 266 271 262
337 335 333 330 327 328 320 319 314 307 294 284 265 247 233 227 215 211 221 225 227 235 231 234 220 226 217 207 235 230 225 230 236 236 238 239 240 245 266 268 265 264 266 269 268 268 276
334 332 330 327 324 327 322 325 324 314 303 302 277 260 235 223 221 214 217 232 244 251 244 237 234 235 225 231 242 229 223 224 228 234 243 249 257 265 262 260 261 264 267 269 277 277 269
333 331 328 325 324 322 318 323 320 313 304 292 275 274 245 229 223 206 222 234 231 247 241 238 237 232 239 241 241 237 227 224 240 250 249 252 258 258 259 262 260 260 257 264 269 282 281
333 331 327 323 322 317 320 325 320 313 313 302 271 275 256 221 216 213 224 225 210 226 227 246 239 237 231 236 243 237 239 243 247 252 253 262 257 257 261 262 260 265 267 276 280 279 269
333 330 326 324 321 320 325 326 322 312 312 309 289 278 257 222 213 214 226 211 212 198 72 219 213 211 220 219 231 226 237 242 243 248 245 257 264 266 260 273 268 266 272 269 279 270 281
333 329 326 324 320 323 327 330 321 303 332 327 272 275 257 235 207 188 206 199 171 167 232 191 190 202 206 199 215 218 215 219 230 237 247 253 258 267 268 268 266 271 267 271 256 259 249
334 329 326 325 321 325 326 324 315 302 319 319 294 268 242 234 204 185 186 169 146 198 170 191 192 186 193 196 191 213 206 205 202 207 250 270 268 271 264 264 262 252 243 256 226 214 242
334 329 331 325 324 324 321 320 312 305 320 324 310 240 225 222 197 184 193 168 134 185 169 177 180 168 174 176 189 197 208 214 222 233 260 273 279 231 267 257 256 257 232 221 245 233 241
337 337 332 327 326 324 321 321 322 325 335 351 319 204 197 210 184 163 183 166 160 179 188 164 152 164 179 186 193 202 218 237 239 234 223 253 260 241 258 269 248 233 218 255 245 259 271
338 338 333 333 328 328 325 322 319 325 340 1 37 139 184 201 176 161 178 168 159 165 186 205 165 184 190 194 197 195 212 255 242 247 230 246 272 273 269 257 248 230 236 217 214 241 240
341 336 336 340 334 335 329 327 318 325 343 350 340 191 196 187 196 175 184 156 163 150 145 173 192 183 186 194 207 201 226 220 209 222 210 230 245 264 269 247 255 227 233 234 238 227 237
345 340 344 344 339 341 335 331 320 326 334 345 37 101 161 187 176 180 183 177 175 188 187 172 180 194 196 201 196 215 225 205 197 214 226 255 255 257 264 279 273 258 251 248 230 232 235
351 350 350 349 346 345 340 337 326 338 334 360 102 141 136 178 169 171 178 178 183 176 185 198 212 209 221 212 206 242 255 247 238 254 255 233 232 275 287 270 242 237 241 241 245 243 247
356 351 354 351 349 347 348 346 343 337 328 124 119 135 171 177 186 184 175 176 183 194 209 229 234 242 232 224 224 244 245 243 231 235 244 252 245 245 255 276 274 243 242 247 233 233 246
359 351 351 351 347 348 356 13 343 345 57 96 100 158 157 166 178 191 196 193 196 203 209 218 227 221 230 223 253 255 274 261 245 243 270 263 264 272 280 284 274 263 256 250 236 242 231
359 356 348 351 346 353 354 26 27 38 106 72 108 168 188 189 169 183 192 195 210 204 216 220 216 214 231 244 256 259 254 286 279 255 260 259 262 278 282 297 299 289 265 253 246 247 258
355 1 351 347 352 357 353 9 36 44 127 87 79 174 175 173 174 184 199 197 202 204 212 218 206 222 247 297 286 263 284 265 254 250 251 271 274 278 286 300 295 288 298 254 245 249 253
353 359 357 346 346 354 347 340 14 44 95 165 342 186 186 193 206 204 204 182 181 187 225 245 221 244 259 295 304 288 293 276 254 245 254 269 281 281 287 315 250 325 352 309 283 249 245
354 358 356 347 343 348 340 328 273 120 150 136 205 179 191 201 208 212 210 208 224 233 239 243 230 242 258 273 300 305 301 283 281 270 261 261 266 272 282 304 302 349 16 351 323 358 289
355 357 357 351 345 339 327 313 277 183 138 133 173 181 199 212 219 203 192 202 207 222 234 239 262 244 263 273 276 265 255 289 277 280 264 220 230 255 305 308 319 355 14 65 66 37 15
354 357 357 349 343 335 326 295 254 194 169 157 182 202 208 211 208 208 199 195 201 216 236 263 285 267 257 257 251 240 255 256 269 260 250 201 228 257 277 276 290 346 357 19 28 355 53
354 355 357 352 337 329 317 299 255 225 186 181 195 201 174 170 205 200 215 223 229 248 249 264 280 272 280 242 236 241 241 239 253 250 271 261 216 232 214 244 302 350 21 12 6 23 101
352 354 354 354 341 330 305 292 263 222 202 187 175 188 194 202 202 196 184 195 215 225 236 245 250 279 289 258 239 218 227 241 255 265 256 247 225 258 266 288 316 331 0 360 9 11 184
Height
3076 3071 3067 3064 3061 3057 3053 3050 3047 3046 3047 3046 3046 3046 3046 3048 3048 3048 3049 3051 3053 3055 3055 3057 3059 3060 3061 3062 3064 3067 3068 3070 3073 3076 3078 3081 3082 3084 3085 3086 3088 3089 3092 3093 3094 3095 3097
3073 3069 3064 3059 3054 3050 3046 3042 3039 3039 3037 3037 3038 3037 3038 3040 3042 3043 3044 3045 3047 3049 3051 3053 3054 3056 3058 3059 3060 3062 3065 3069 3071 3073 3076 3077 3079 3081 3081 3083 3083 3084 3086 3088 3089 3089 3089
3069 3064 3058 3052 3047 3043 3039 3035 3031 3029 3028 3027 3027 3029 3030 3033 3035 3037 3038 3040 3042 3044 3046 3047 3049 3052 3054 3057 3057 3057 3060 3064 3067 3069 3071 3074 3075 3078 3079 3080 3079 3080 3081 3082 3084 3085 3082
3062 3056 3051 3046 3040 3035 3030 3027 3022 3018 3017 3017 3017 3019 3021 3024 3027 3030 3032 3035 3036 3038 3040 3042 3044 3048 3050 3051 3052 3054 3056 3059 3063 3065 3067 3069 3071 3073 3074 3076 3077 3077 3078 3077 3078 3079 3079
3057 3050 3044 3038 3033 3028 3022 3016 3011 3008 3006 3005 3006 3008 3011 3014 3018 3022 3027 3028 3030 3032 3035 3036 3040 3043 3046 3047 3049 3050 3052 3055 3059 3061 3063 3065 3067 3068 3070 3072 3074 3073 3071 3072 3074 3075 3075
3046 3039 3032 3026 3020 3018 3013 3007 3002 2996 2993 2992 2994 2996 3000 3005 3010 3015 3020 3021 3023 3026 3029 3033 3036 3042 3040 3042 3044 3047 3050 3052 3055 3058 3060 3061 3061 3062 3064 3067 3067 3068 3068 3069 3069 3072 3070
3040 3031 3025 3019 3012 3006 3002 2999 2991 2987 2982 2981 2981 2984 2989 2996 3000 3007 3013 3011 3017 3021 3024 3031 3032 3032 3035 3038 3041 3043 3046 3049 3051 3054 3055 3055 3057 3055 3061 3063 3065 3066 3066 3065 3066 3068 3064
3037 3029 3021 3014 3006 3001 2993 2987 2983 2977 2973 2970 2970 2974 2978 2983 2990 2998 3001 3002 3011 3017 3022 3024 3026 3029 3031 3034 3038 3040 3044 3047 3047 3050 3051 3053 3049 3054 3055 3057 3059 3061 3061 3059 3060 3062 3063
3032 3024 3017 3008 3001 2994 2987 2981 2975 2969 2966 2964 2964 2965 2966 2970 2980 2985 2990 2999 3005 3013 3017 3019 3021 3024 3028 3031 3033 3037 3040 3042 3044 3046 3047 3047 3047 3048 3050 3052 3054 3054 3055 3057 3058 3056 3055
3027 3019 3012 3004 2995 2988 2981 2975 2968 2964 2962 2959 2958 2958 2959 2963 2973 2978 2984 2991 2998 3007 3013 3014 3015 3019 3022 3024 3027 3033 3035 3039 3039 3041 3043 3042 3042 3043 3044 3045 3050 3048 3049 3052 3053 3054 3050
3022 3014 3005 2996 2989 2982 2975 2968 2963 2959 2957 2954 2953 2953 2953 2957 2962 2972 2979 2987 2996 3004 3010 3008 3007 3009 3013 3020 3022 3026 3029 3031 3032 3036 3039 3038 3037 3039 3039 3043 3046 3045 3044 3045 3048 3048 3046
3016 3008 3000 2990 2983 2976 2970 2964 2959 2955 2951 2948 2945 2946 2948 2948 2956 2965 2971 2980 2986 3001 2999 2999 3001 3004 3009 3013 3017 3020 3024 3027 3029 3031 3031 3032 3033 3035 3036 3040 3042 3043 3043 3043 3042 3044 3036
3011 3001 2993 2985 2977 2971 2966 2960 2955 2951 2946 2941 2938 2937 2940 2943 2952 2959 2969 2970 2981 2988 2990 2993 2996 3000 3006 3009 3014 3017 3020 3023 3026 3029 3028 3028 3026 3029 3031 3034 3036 3037 3040 3040 3036 3032 3022
3005 2994 2986 2979 2972 2966 2961 2955 2951 2946 2940 2931 2924 2926 2931 2937 2949 2954 2962 2967 2976 2981 2985 2987 2992 2999 3005 3008 3013 3016 3019 3020 3022 3024 3025 3025 3024 3023 3024 3027 3028 3030 3033 3032 3024 3023 3018
2998 2987 2980 2974 2968 2962 2956 2951 2945 2941 2935 2925 2923 2924 2929 2936 2946 2948 2956 2964 2971 2976 2982 2984 2992 2998 3003 3007 3011 3013 3016 3017 3018 3019 3023 3021 3019 3019 3021 3022 3024 3024 3021 3022 3023 3021 3016
2993 2984 2976 2969 2963 2958 2953 2946 2942 2938 2933 2928 2928 2928 2930 2934 2944 2948 2958 2963 2971 2975 2979 2984 2988 2995 2999 3004 3008 3011 3012 3012 3012 3013 3018 3019 3018 3015 3016 3017 3016 3016 3017 3018 3017 3014 3005
2989 2980 2972 2965 2959 2955 2949 2943 2939 2937 2933 2931 2928 2929 2930 2938 2945 2951 2957 2960 2969 2976 2980 2984 2988 2992 2997 3000 3005 3007 3008 3010 3010 3011 3013 3015 3016 3013 3010 3007 3006 3010 3009 3010 3009 3005 2998
2987 2977 2969 2962 2958 2953 2946 2941 2937 2936 2932 2929 2925 2931 2933 2940 2946 2951 2958 2963 2969 2976 2979 2984 2988 2993 2996 2999 3002 3004 3004 3007 3008 3009 3009 3011 3011 3005 3001 3000 3000 2998 2997 3000 3000 2997 2995
2984 2974 2968 2962 2956 2950 2944 2940 2937 2937 2934 2929 2928 2930 2936 2940 2947 2953 2960 2963 2971 2975 2980 2985 2988 2991 2994 2998 3001 3001 3002 3003 3004 3006 3007 3007 3005 3003 2995 2993 2990 2986 2984 2987 2989 2992 2984
2984 2973 2967 2961 2955 2949 2943 2939 2939 2935 2933 2932 2935 2935 2941 2945 2949 2957 2961 2966 2972 2977 2982 2985 2987 2990 2992 2995 2997 2998 2999 3001 3002 3003 3004 3004 3000 2997 2989 2984 2984 2979 2978 2978 2981 2980 2975
2983 2972 2966 2960 2955 2949 2943 2940 2940 2937 2932 2934 2936 2939 2942 2947 2954 2959 2964 2970 2973 2978 2981 2984 2985 2988 2990 2994 2994 2995 2997 2998 2998 3000 3000 2999 2992 2989 2980 2977 2976 2971 2970 2970 2970 2968 2971
2983 2972 2964 2959 2954 2950 2945 2942 2940 2936 2936 2939 2939 2942 2947 2954 2955 2960 2965 2970 2974 2978 2980 2982 2985 2987 2989 2991 2993 2993 2993 2993 2994 2994 2993 2992 2986 2982 2971 2970 2966 2960 2958 2958 2960 2963 2959
2980 2972 2963 2958 2953 2949 2946 2944 2942 2939 2937 2939 2942 2945 2949 2951 2956 2962 2966 2971 2973 2978 2981 2982 2984 2986 2988 2989 2989 2989 2988 2989 2990 2990 2989 2987 2985 2980 2965 2966 2960 2954 2949 2949 2953 2952 2956
2979 2971 2964 2957 2952 2950 2946 2945 2943 2943 2943 2944 2945 2946 2950 2953 2956 2961 2967 2972 2974 2977 2980 2981 2983 2985 2987 2986 2986 2985 2985 2984 2984 2983 2984 2983 2982 2980 2968 2963 2955 2950 2945 2944 2943 2944 2948
2979 2969 2963 2956 2951 2949 2946 2945 2944 2945 2946 2947 2947 2949 2951 2953 2957 2961 2966 2971 2974 2975 2978 2981 2981 2983 2983 2984 2983 2981 2980 2979 2976 2977 2978 2979 2980 2978 2972 2963 2957 2951 2947 2945 2943 2947 2946
2977 2968 2960 2955 2950 2947 2945 2944 2945 2944 2946 2948 2949 2951 2953 2955 2956 2961 2965 2969 2972 2975 2977 2977 2979 2979 2980 2980 2981 2981 2980 2978 2977 2975 2974 2974 2976 2977 2973 2969 2960 2956 2952 2949 2947 2948 2947
2977 2967 2959 2953 2949 2946 2944 2943 2943 2943 2945 2948 2950 2950 2953 2954 2956 2959 2964 2968 2970 2972 2974 2975 2976 2976 2976 2977 2979 2979 2979 2979 2976 2974 2972 2972 2973 2973 2973 2971 2962 2959 2955 2953 2953 2958 2952
2975 2965 2958 2951 2947 2944 2941 2940 2941 2942 2942 2945 2948 2951 2952 2953 2955 2959 2963 2966 2970 2971 2972 2974 2975 2973 2973 2975 2976 2976 2975 2975 2972 2971 2970 2970 2970 2970 2970 2969 2965 2961 2959 2959 2959 2956 2956
2972 2964 2955 2949 2944 2941 2939 2937 2937 2939 2939 2942 2946 2948 2950 2953 2955 2957 2960 2964 2966 2968 2970 2970 2972 2971 2972 2972 2973 2972 2971 2971 2970 2969 2968 2969 2968 2968 2969 2966 2964 2962 2962 2960 2959 2958 2958